{"data":{"norad_id":38778,"intl_designator":"2012-051A","name":"ASTRA 2F","alt_names":[],"object_type":"PAYLOAD","status":"ACTIVE","operator":null,"country":"SES","launch_date":"2012-09-28","launch_site_code":"FRGUI","launch_vehicle":null,"mission":null,"orbit_class":"UNKNOWN","rcs_meters":17.601,"size_class":null,"mass_kg":null,"dimensions":null,"purposes":["comms"],"wikipedia_slug":null,"has_3d_model":false,"image_url":null,"decayed_at":null,"tle_current":{"epoch":"2026-05-25T03:52:38.992224Z","epoch_age_seconds":65060,"freshness":"FRESH","line1":"1 38778U 12051A   26145.16156241  .00000148  00000+0  00000+0 0  9997","line2":"2 38778   0.0345 255.4371 0000867 273.3777 160.2938  1.00273420 40902","mean_motion":1.0027342,"eccentricity":8.67e-5,"inclination_deg":0.0345,"raan_deg":255.4371,"arg_perigee_deg":273.3777,"mean_anomaly_deg":160.2938,"bstar":0,"rev_number":4090,"period_min":1436.0734878695,"perigee_km":35782.480975044,"apogee_km":35789.792260089,"semimajor_km":42164.273617566,"source":"CELESTRAK","updated_at":"2026-05-25T13:38:14.506044Z"}}}